レモン彗星

C/2023 V1 ( Lemmon )

English version
Home page
Updated on May 15, 2024

---------------------------------------------------------------------

・ プロフィール

発見日 2023年11月2日
発見光度 20.5等
発見者 J. B. Fazekas (Mt. Lemmon)

・ 軌道要素

Epoch 2024 Mar. 31.0 TT = JDT 2460400.5
T 2025 July 13.08333 TT                                 Rudenko
q   5.0928133            (2000.0)            P               Q
z  +0.0000608      Peri.  103.30937     -0.16983157     -0.95228266
 +/-0.0000009      Node    15.02733     -0.61282138     -0.09947945
e   0.9996905      Incl.  102.01053     +0.77175592     -0.28855081
>From 75 observations 2022 Sept. 23-2023 Dec. 31, mean residual 0".3.

・ 光度変化

        m1 = 8.0 + 5 logΔ + 10.0 log r

---------------------------------------------------------------------

軌道要素はM.P.E.C. 2024-G193に掲載されたものです。
光度グラフはComet for Windowsで作成したものです。

---------------------------------------------------------------------

Copyright(C) Seiichi Yoshida (comet@aerith.net). All rights reserved.